Wind_Speed
15 15 15 16 16 15 14 14 14 14 14 14 14 14 14 13 14 14 14 13 13 13 13 13 13 13 13 13 13 13 13 13 13 13 13 13 13 14 14 15 15 16 17
15 15 16 16 16 16 16 16 16 15 15 15 15 15 15 15 15 15 14 14 15 15 15 15 15 14 14 14 13 13 13 13 13 13 13 14 14 15 15 16 16 17 17
17 16 16 17 17 17 17 17 17 16 16 16 16 16 16 16 16 16 16 16 16 16 16 16 16 16 15 15 14 14 14 14 14 15 15 15 16 16 16 16 17 17 18
18 18 18 18 18 18 17 18 18 18 18 18 17 17 17 17 17 17 17 17 17 17 17 17 17 17 16 16 16 15 16 16 16 16 17 17 17 17 17 18 18 19 18
19 19 19 18 19 19 18 19 19 19 19 19 19 19 19 19 18 18 18 18 18 18 18 18 18 18 18 17 17 17 17 17 17 18 18 18 18 19 19 20 20 20 20
20 20 20 19 19 19 19 19 19 19 20 20 20 20 20 20 19 19 19 18 19 19 19 19 19 18 18 18 18 19 19 18 18 19 19 20 20 20 21 21 21 21 21
22 22 22 21 20 20 20 20 20 20 20 20 20 20 20 20 19 19 19 19 19 19 19 19 19 19 19 19 19 18 19 19 19 20 20 21 21 21 21 21 22 22 23
23 23 23 22 22 21 21 20 20 20 20 20 20 20 20 20 20 20 20 20 20 20 20 20 20 20 20 20 20 20 20 20 20 21 22 22 21 22 22 22 23 23 24
24 24 24 24 23 22 21 21 20 20 20 20 20 20 20 20 21 21 20 20 20 20 20 21 21 21 21 21 21 21 21 21 22 22 22 22 22 23 23 23 23 24 24
25 24 24 24 23 22 21 21 21 20 20 21 21 21 20 20 19 19 20 19 20 20 20 20 21 21 21 21 21 21 22 22 22 23 22 22 22 23 24 24 24 24 24
26 25 24 24 23 22 22 22 21 21 21 21 21 21 21 20 20 20 20 21 21 21 20 20 21 21 22 22 22 22 23 23 23 23 23 23 23 23 24 25 25 26 26
26 25 24 24 23 23 22 22 21 21 21 21 21 21 20 20 20 21 21 21 21 21 21 21 21 22 23 23 23 23 24 24 24 24 24 24 24 25 25 26 26 26 26
26 25 25 24 23 23 23 22 22 21 21 21 21 21 21 21 21 21 22 22 22 22 22 23 22 23 24 25 25 25 25 25 25 25 25 25 26 27 27 27 27 28 27
26 25 25 25 24 23 23 23 23 23 22 22 22 22 22 22 22 22 23 23 23 23 24 24 25 25 25 26 26 26 26 26 26 26 26 26 27 27 27 27 28 28 28
26 26 26 25 25 24 24 24 24 24 24 24 24 24 24 23 24 24 24 24 25 25 25 25 26 26 26 26 26 26 26 26 26 27 27 27 27 28 28 28 29 29 29
26 26 26 26 26 25 25 24 25 25 25 25 25 25 25 25 25 25 25 25 25 26 26 26 26 27 27 27 26 26 26 27 27 28 28 28 28 28 28 28 28 29 30
27 27 26 26 27 26 26 25 25 25 25 25 26 25 26 26 26 26 26 26 26 26 26 26 27 28 28 28 27 27 27 27 28 28 29 28 29 29 29 29 29 29 30
28 28 28 27 27 27 27 26 26 26 26 26 27 27 27 27 27 26 26 27 27 27 27 27 28 28 28 28 28 28 28 28 28 28 28 29 29 29 29 29 29 30 30
29 29 29 29 28 28 27 27 27 28 28 28 28 28 28 28 28 28 28 28 28 28 28 28 29 29 29 29 29 29 29 29 29 29 29 29 29 29 29 30 30 30 31
30 30 30 30 29 29 29 28 28 28 28 29 29 29 29 29 28 28 29 29 29 29 30 30 30 30 30 30 30 30 30 30 30 30 30 30 31 31 31 31 31 32 33
31 30 30 30 30 30 30 30 30 29 29 30 30 30 30 30 30 30 30 30 30 31 31 31 31 30 31 31 31 31 31 31 31 31 31 32 31 32 32 33 33 34 35
29 29 29 29 30 30 30 30 30 30 30 30 30 31 31 31 31 31 31 31 31 31 31 31 31 31 31 31 31 31 31 31 32 32 33 33 33 33 33 34 35 35 36
29 29 29 30 29 30 31 31 31 30 30 30 30 31 31 31 31 31 31 31 31 31 31 31 31 31 30 31 32 32 32 32 32 33 34 34 33 33 34 35 36 36 36
29 29 29 30 30 30 31 30 31 31 30 30 30 31 31 31 31 32 32 31 31 32 32 32 32 32 32 32 32 33 33 33 33 34 34 34 34 34 35 36 36 37 37
31 30 30 30 31 31 31 31 31 31 31 31 31 31 31 32 32 32 32 32 31 32 32 32 32 32 33 33 32 33 34 34 34 34 35 35 35 35 36 36 36 37 39
31 31 31 32 32 32 33 33 33 32 32 32 32 32 32 32 32 32 32 32 32 33 33 33 32 32 32 33 33 33 33 34 34 35 35 35 35 35 35 36 37 38 40
Wind_Direction
273 274 273 271 271 272 273 274 275 275 274 276 275 276 279 280 280 279 280 279 280 282 284 283 283 284 283 283 285 286 285 286 288 288 286 291 293 291 293 295 296 297 298
274 274 273 271 270 271 273 275 277 276 275 275 275 275 276 279 280 279 278 279 280 280 281 282 283 283 284 283 283 283 284 284 286 287 288 292 293 293 293 295 297 297 296
273 275 274 272 272 273 273 274 275 276 276 275 277 275 275 279 280 278 275 278 280 280 280 281 282 283 283 283 282 282 283 283 284 287 289 292 293 294 294 295 297 298 299
272 272 274 274 274 273 274 273 275 275 274 273 275 274 275 278 279 278 275 276 279 280 279 280 280 280 280 281 281 280 281 281 283 286 288 291 292 293 293 294 295 297 298
270 271 272 273 275 274 274 273 275 277 276 274 275 274 274 277 277 277 276 276 277 278 278 278 279 279 278 279 280 279 281 281 281 284 286 288 290 290 291 292 293 295 296
270 270 271 272 275 276 276 274 274 276 277 276 275 275 275 275 274 275 275 275 275 276 276 276 278 279 277 278 279 279 280 282 282 283 283 286 287 288 290 291 292 293 296
270 269 270 272 274 275 275 274 273 275 276 277 276 275 276 275 274 274 274 274 274 274 274 274 277 278 278 278 279 281 281 283 285 285 285 286 287 288 290 291 291 291 294
270 269 270 270 272 273 272 272 271 274 274 275 275 275 274 274 275 275 275 274 274 274 274 274 274 275 275 275 277 279 282 284 286 286 288 288 286 288 291 291 292 293 294
268 268 267 268 269 270 270 269 269 272 273 272 272 273 274 275 275 275 275 276 276 275 274 272 271 272 272 273 276 278 281 282 285 286 288 289 289 290 291 292 294 294 294
265 265 266 266 267 267 268 268 268 270 271 272 272 273 274 275 276 278 277 276 278 277 275 274 273 271 271 272 275 278 281 283 284 285 287 288 289 290 290 291 293 294 295
264 264 265 265 265 265 267 268 268 268 270 271 272 273 273 274 275 279 280 279 278 278 276 275 274 273 273 275 277 279 280 282 283 285 287 287 287 289 291 292 293 294 295
264 264 264 265 265 264 266 267 267 268 270 272 272 273 273 275 277 278 280 283 282 278 276 275 274 272 274 275 277 279 280 281 282 284 285 286 286 288 291 293 293 294 295
262 262 263 263 265 265 265 266 266 267 269 270 271 273 274 276 278 280 282 282 282 279 275 274 273 274 274 274 275 277 280 281 282 283 284 286 288 288 289 291 293 293 294
261 261 261 262 264 265 264 265 265 266 269 270 271 272 273 276 278 280 282 282 281 281 278 274 274 275 275 276 276 277 280 281 282 282 284 285 286 288 289 289 291 293 293
260 260 261 262 263 264 265 264 264 266 269 270 271 271 273 274 276 278 279 280 280 280 280 278 276 275 275 275 277 278 280 282 282 283 283 284 286 287 287 288 290 292 293
259 260 262 263 264 265 265 265 265 265 267 270 271 272 274 275 277 279 279 280 281 281 280 278 276 277 277 276 277 278 280 281 282 283 283 284 285 287 287 288 290 292 294
258 259 261 263 265 266 266 265 264 265 267 269 271 273 275 276 278 279 280 281 281 281 280 279 278 278 278 277 276 278 280 282 283 283 284 284 285 286 287 288 290 292 294
259 259 260 262 263 265 265 264 263 264 266 267 270 273 275 277 278 279 281 281 281 280 280 280 279 278 277 277 277 279 280 282 283 284 284 284 285 285 286 287 289 291 294
259 260 260 261 263 264 265 264 264 265 266 268 269 272 274 277 279 280 281 281 281 280 280 279 279 278 277 277 277 279 280 280 282 283 284 285 285 286 286 287 289 291 293
258 259 259 260 262 264 265 265 265 265 266 268 270 271 273 276 278 280 280 280 280 280 279 279 279 278 277 277 277 278 279 280 282 283 284 284 284 285 287 287 289 291 292
258 258 259 261 262 263 265 266 266 266 267 269 270 271 274 276 278 280 280 280 281 280 280 279 278 277 277 277 277 278 279 280 281 282 283 283 284 285 287 287 289 291 292
258 259 260 261 262 263 265 266 266 266 267 268 270 272 274 276 278 280 280 280 281 282 281 280 279 278 278 278 277 278 278 280 280 281 281 282 282 282 284 285 288 292 293
258 259 261 261 262 263 264 266 266 267 267 268 270 272 275 277 278 279 280 281 280 281 281 281 279 278 278 279 279 278 278 279 279 279 280 283 283 283 283 285 288 291 293
258 259 260 261 262 264 266 266 267 267 268 269 271 273 274 276 278 279 280 281 282 282 282 282 281 280 279 279 279 278 278 278 280 281 281 283 284 285 285 287 289 291 293
258 259 260 261 263 266 267 267 267 268 269 270 272 274 275 277 279 279 280 281 281 282 282 282 281 281 280 280 279 279 279 279 280 281 283 284 286 286 287 288 290 292 293
259 260 261 262 264 266 267 267 267 268 270 271 272 273 275 277 279 279 280 281 280 280 281 281 281 281 282 282 280 280 280 280 281 281 282 284 286 287 287 288 290 292 294
Height
5830 5830 5830 5831 5831 5831 5831 5831 5831 5831 5831 5832 5832 5832 5832 5831 5831 5831 5831 5831 5830 5830 5830 5830 5830 5829 5829 5829 5828 5828 5828 5828 5827 5827 5827 5826 5826 5825 5824 5823 5822 5822 5820
5826 5826 5826 5826 5827 5827 5827 5827 5827 5827 5827 5827 5827 5828 5827 5827 5827 5827 5827 5827 5827 5827 5826 5826 5826 5826 5825 5825 5825 5824 5824 5824 5824 5824 5823 5823 5822 5821 5820 5820 5819 5818 5816
5822 5822 5822 5822 5822 5823 5823 5823 5823 5823 5823 5823 5823 5823 5823 5823 5823 5822 5823 5823 5822 5822 5822 5822 5822 5822 5821 5821 5821 5821 5820 5820 5820 5820 5819 5818 5818 5817 5816 5815 5814 5813 5812
5817 5817 5818 5818 5818 5818 5818 5818 5818 5818 5818 5818 5818 5818 5818 5818 5818 5817 5817 5818 5818 5818 5818 5817 5817 5817 5817 5817 5817 5816 5816 5816 5815 5815 5815 5814 5813 5812 5812 5811 5810 5809 5807
5812 5812 5813 5813 5813 5813 5813 5813 5813 5813 5813 5813 5813 5813 5813 5813 5812 5812 5812 5812 5813 5812 5812 5812 5812 5812 5812 5812 5812 5811 5811 5811 5810 5810 5810 5809 5808 5807 5806 5805 5804 5803 5802
5806 5806 5807 5807 5807 5807 5807 5807 5807 5807 5807 5807 5807 5807 5807 5807 5807 5806 5806 5806 5807 5807 5807 5807 5807 5807 5807 5806 5806 5806 5806 5806 5805 5805 5804 5804 5803 5802 5801 5799 5798 5797 5796
5800 5800 5800 5801 5801 5801 5801 5801 5801 5801 5801 5801 5801 5801 5801 5801 5801 5800 5800 5800 5801 5801 5801 5801 5801 5801 5801 5801 5800 5800 5800 5800 5800 5799 5798 5798 5797 5796 5794 5793 5792 5791 5790
5793 5794 5794 5794 5795 5795 5795 5795 5795 5795 5795 5796 5796 5795 5795 5795 5795 5794 5794 5794 5794 5794 5794 5794 5795 5795 5795 5795 5795 5794 5794 5794 5793 5793 5792 5791 5790 5789 5788 5787 5786 5784 5783
5786 5787 5787 5788 5788 5788 5788 5789 5789 5789 5789 5789 5790 5789 5789 5789 5789 5788 5788 5788 5788 5788 5788 5788 5788 5788 5788 5788 5788 5788 5788 5787 5786 5786 5785 5784 5783 5782 5781 5780 5779 5778 5776
5779 5780 5780 5780 5781 5782 5782 5782 5783 5783 5783 5783 5783 5783 5783 5783 5783 5782 5782 5782 5782 5782 5781 5781 5781 5781 5781 5781 5781 5781 5781 5780 5780 5779 5778 5777 5776 5775 5774 5773 5771 5770 5769
5771 5772 5773 5773 5774 5775 5776 5776 5776 5777 5777 5777 5777 5777 5777 5777 5777 5776 5776 5775 5775 5775 5775 5775 5774 5774 5774 5774 5774 5774 5774 5773 5772 5772 5771 5770 5769 5768 5767 5765 5764 5762 5761
5763 5765 5766 5766 5767 5768 5769 5769 5769 5770 5770 5771 5771 5771 5771 5771 5770 5770 5769 5769 5768 5768 5768 5768 5767 5767 5767 5767 5767 5767 5766 5766 5765 5765 5764 5763 5762 5761 5760 5758 5756 5755 5753
5756 5757 5758 5759 5760 5761 5762 5762 5763 5764 5764 5764 5765 5765 5765 5765 5764 5763 5763 5762 5761 5761 5760 5760 5760 5760 5760 5760 5759 5759 5759 5758 5758 5757 5756 5755 5754 5753 5752 5750 5748 5747 5745
5748 5750 5751 5752 5753 5754 5755 5755 5756 5757 5757 5758 5758 5758 5758 5758 5757 5757 5756 5755 5754 5754 5753 5753 5752 5752 5752 5752 5751 5751 5751 5750 5749 5749 5748 5747 5746 5745 5743 5742 5740 5739 5737
5740 5742 5743 5744 5746 5746 5747 5748 5749 5750 5750 5750 5751 5751 5751 5751 5750 5749 5748 5748 5747 5746 5745 5745 5745 5744 5744 5744 5743 5743 5742 5742 5741 5740 5739 5739 5738 5736 5735 5733 5732 5730 5729
5732 5734 5735 5736 5738 5739 5739 5740 5741 5742 5742 5743 5743 5743 5743 5743 5742 5741 5741 5740 5739 5738 5738 5737 5737 5736 5736 5735 5735 5734 5734 5733 5732 5731 5731 5730 5729 5727 5726 5724 5723 5721 5719
5724 5726 5727 5728 5729 5730 5731 5732 5733 5734 5734 5735 5735 5735 5735 5734 5734 5733 5733 5732 5731 5730 5729 5729 5728 5728 5727 5727 5726 5726 5725 5724 5723 5723 5722 5721 5719 5718 5717 5715 5713 5712 5710
5715 5717 5719 5720 5721 5722 5723 5724 5725 5726 5727 5727 5727 5727 5727 5726 5725 5725 5724 5723 5723 5722 5721 5720 5719 5719 5718 5717 5717 5717 5716 5715 5714 5714 5712 5711 5710 5709 5707 5706 5704 5703 5701
5707 5708 5710 5711 5712 5713 5714 5715 5716 5717 5718 5718 5718 5719 5718 5717 5717 5716 5715 5715 5714 5713 5712 5711 5710 5709 5709 5708 5708 5707 5707 5706 5705 5704 5703 5702 5701 5699 5698 5697 5695 5693 5691
5697 5699 5700 5702 5703 5704 5705 5705 5706 5707 5708 5709 5709 5709 5709 5708 5708 5708 5707 5706 5705 5704 5703 5702 5701 5700 5699 5699 5698 5698 5697 5696 5695 5694 5693 5692 5691 5690 5688 5687 5685 5683 5681
5688 5689 5691 5692 5693 5694 5695 5696 5697 5698 5698 5699 5699 5699 5699 5699 5698 5698 5697 5696 5695 5694 5693 5692 5691 5690 5689 5689 5688 5688 5687 5686 5686 5685 5684 5682 5681 5680 5678 5677 5675 5673 5670
5678 5680 5681 5682 5684 5685 5686 5686 5687 5688 5688 5689 5689 5689 5689 5689 5688 5688 5687 5686 5685 5684 5683 5682 5681 5680 5679 5679 5678 5677 5677 5676 5675 5675 5673 5672 5671 5669 5668 5666 5664 5661 5659
5669 5671 5672 5673 5674 5675 5676 5677 5677 5678 5678 5679 5679 5679 5679 5679 5678 5678 5677 5676 5675 5674 5673 5672 5671 5670 5669 5668 5667 5667 5666 5666 5665 5664 5663 5661 5660 5659 5657 5655 5653 5650 5648
5660 5661 5663 5664 5665 5666 5666 5667 5667 5668 5668 5669 5669 5669 5669 5668 5668 5667 5666 5665 5664 5664 5663 5662 5660 5660 5659 5658 5657 5656 5655 5655 5654 5653 5651 5650 5649 5647 5645 5643 5641 5638 5636
5650 5652 5653 5654 5655 5656 5657 5657 5658 5658 5658 5658 5659 5659 5659 5658 5658 5657 5656 5655 5654 5654 5653 5651 5650 5649 5648 5647 5646 5645 5644 5643 5642 5641 5640 5638 5637 5635 5633 5631 5629 5627 5624
5640 5642 5643 5644 5645 5646 5646 5647 5648 5648 5648 5648 5648 5648 5648 5648 5647 5647 5646 5645 5644 5643 5642 5641 5640 5639 5638 5636 5636 5634 5633 5632 5631 5629 5628 5627 5625 5623 5621 5619 5617 5614 5611